| time (UTC) | temp F | wind direction | speed MPH | gust MPH | rain 1hr in | rain 24hr in | rain mn in | humidity % | barometer mb |
| 20260905224503 | 69 | 0 | 0.0 | 0.0 | 0.00 | 0.00 | 0.00 | 77 | 1014.4 |
| 20260905224003 | 69 | 0 | 0.0 | 0.0 | 0.00 | 0.00 | 0.00 | 77 | 1014.4 |
| 20260905223503 | 69 | 0 | 0.0 | 0.0 | 0.00 | 0.00 | 0.00 | 76 | 1014.4 |
| 20260905223003 | 70 | 32 | 0.0 | 1.0 | 0.00 | 0.00 | 0.00 | 76 | 1014.4 |
| 20260905222503 | 70 | 32 | 0.0 | 1.0 | 0.00 | 0.00 | 0.00 | 75 | 1014.4 |
| 20260905222003 | 70 | 32 | 0.0 | 1.0 | 0.00 | 0.00 | 0.00 | 75 | 1014.4 |
| 20260905221503 | 70 | 32 | 0.0 | 1.0 | 0.00 | 0.00 | 0.00 | 76 | 1014.5 |
| 20260905221003 | 70 | 0 | 0.0 | 0.0 | 0.00 | 0.00 | 0.00 | 74 | 1014.5 |
| 20260905220503 | 70 | 32 | 0.0 | 1.0 | 0.00 | 0.00 | 0.00 | 76 | 1014.4 |
| 20260905220003 | 70 | 32 | 0.0 | 1.0 | 0.00 | 0.00 | 0.00 | 71 | 1014.4 |
| 20260905215503 | 70 | 32 | 0.0 | 1.0 | 0.00 | 0.00 | 0.00 | 71 | 1014.3 |
| 20260905215003 | 71 | 34 | 0.0 | 2.0 | 0.00 | 0.00 | 0.00 | 73 | 1014.3 |
| 20260905214504 | 71 | 34 | 0.0 | 2.0 | 0.00 | 0.00 | 0.00 | 72 | 1014.2 |
| 20260905214003 | 71 | 0 | 0.0 | 0.0 | 0.00 | 0.00 | 0.00 | 72 | 1014.2 |
| 20260905213503 | 71 | 14 | 0.0 | 1.0 | 0.00 | 0.00 | 0.00 | 70 | 1014.2 |
| 20260905213003 | 71 | 21 | 0.0 | 1.0 | 0.00 | 0.00 | 0.00 | 70 | 1014.2 |
| 20260905212508 | 71 | 24 | 0.0 | 2.0 | 0.00 | 0.00 | 0.00 | 71 | 1014.1 |
| 20260905212003 | 72 | 25 | 0.0 | 2.0 | 0.00 | 0.00 | 0.00 | 71 | 1014.1 |
| 20260905211503 | 72 | 33 | 0.0 | 1.0 | 0.00 | 0.00 | 0.00 | 74 | 1014.1 |
| 20260905211003 | 72 | 37 | 1.0 | 2.0 | 0.00 | 0.00 | 0.00 | 72 | 1014.2 |
| 20260905210504 | 72 | 40 | 0.0 | 2.0 | 0.00 | 0.00 | 0.00 | 70 | 1014.2 |
| 20260905210003 | 72 | 39 | 0.0 | 2.0 | 0.00 | 0.00 | 0.00 | 70 | 1014.1 |
| 20260905205503 | 73 | 38 | 0.0 | 2.0 | 0.00 | 0.00 | 0.00 | 69 | 1014.1 |
| 20260905205003 | 73 | 29 | 0.0 | 2.0 | 0.00 | 0.00 | 0.00 | 70 | 1014.1 |
| 20260905204503 | 73 | 23 | 1.0 | 3.0 | 0.00 | 0.00 | 0.00 | 69 | 1014.1 |
| 20260905204003 | 74 | 41 | 1.0 | 3.0 | 0.00 | 0.00 | 0.00 | 67 | 1014.1 |
| 20260905203503 | 74 | 48 | 1.0 | 3.0 | 0.00 | 0.00 | 0.00 | 68 | 1014.0 |
| 20260905203003 | 74 | 53 | 0.0 | 3.0 | 0.00 | 0.00 | 0.00 | 68 | 1014.1 |
| 20260905202503 | 74 | 53 | 0.0 | 3.0 | 0.00 | 0.00 | 0.00 | 67 | 1014.1 |
| 20260905202003 | 74 | 39 | 1.0 | 3.0 | 0.00 | 0.00 | 0.00 | 69 | 1014.0 |
| 20260905201717 | 74 | 38 | 1.0 | 3.0 | 0.00 | 0.00 | 0.00 | 67 | 1014.0 |
| 20260905201003 | 74 | 52 | 0.0 | 2.0 | 0.00 | 0.00 | 0.00 | 68 | 1014.1 |
| 20260905200503 | 75 | 74 | 0.0 | 2.0 | 0.00 | 0.00 | 0.00 | 69 | 1014.2 |
| 20260905200008 | 75 | 74 | 1.0 | 3.0 | 0.00 | 0.00 | 0.00 | 69 | 1014.2 |
| 20260905195503 | 75 | 28 | 1.0 | 3.0 | 0.00 | 0.00 | 0.00 | 68 | 1014.2 |
| 20260905195004 | 75 | 15 | 1.0 | 3.0 | 0.00 | 0.00 | 0.00 | 70 | 1014.2 |
| 20260905194503 | 75 | 32 | 1.0 | 4.0 | 0.00 | 0.00 | 0.00 | 70 | 1014.1 |
| 20260905194219 | 74 | 27 | 1.0 | 4.0 | 0.00 | 0.00 | 0.00 | 71 | 1014.1 |
| 20260905193503 | 75 | 331 | 1.0 | 2.0 | 0.00 | 0.00 | 0.00 | 70 | 1014.1 |
| 20260905193003 | 74 | 342 | 1.0 | 2.0 | 0.00 | 0.00 | 0.00 | 70 | 1014.2 |
| 20260905192503 | 74 | 347 | 0.0 | 2.0 | 0.00 | 0.00 | 0.00 | 72 | 1014.2 |
| 20260905192003 | 74 | 323 | 0.0 | 2.0 | 0.00 | 0.00 | 0.00 | 71 | 1014.2 |
| 20260905191716 | 74 | 291 | 0.0 | 2.0 | 0.00 | 0.00 | 0.00 | 71 | 1014.2 |
| 20260905191003 | 74 | 273 | 1.0 | 2.0 | 0.00 | 0.00 | 0.00 | 71 | 1014.4 |
| 20260905190503 | 74 | 212 | 1.0 | 2.0 | 0.00 | 0.00 | 0.00 | 65 | 1014.3 |
| 20260905190218 | 74 | 199 | 0.0 | 2.0 | 0.00 | 0.00 | 0.00 | 69 | 1014.3 |
| 20260905185503 | 73 | 200 | 0.0 | 2.0 | 0.00 | 0.00 | 0.00 | 70 | 1014.3 |
| 20260905185003 | 73 | 187 | 1.0 | 2.0 | 0.00 | 0.00 | 0.00 | 69 | 1014.4 |
| 20260905184503 | 73 | 67 | 1.0 | 3.0 | 0.00 | 0.00 | 0.00 | 69 | 1014.3 |
| 20260905184003 | 73 | 45 | 1.0 | 3.0 | 0.00 | 0.00 | 0.00 | 65 | 1014.3 |
| 20260905183503 | 74 | 31 | 1.0 | 2.0 | 0.00 | 0.00 | 0.00 | 70 | 1014.3 |
| 20260905183217 | 74 | 38 | 1.0 | 2.0 | 0.00 | 0.00 | 0.00 | 71 | 1014.3 |
| 20260905182503 | 73 | 50 | 1.0 | 2.0 | 0.00 | 0.00 | 0.00 | 68 | 1014.3 |
| 20260905182003 | 73 | 56 | 0.0 | 2.0 | 0.00 | 0.00 | 0.00 | 70 | 1014.3 |
| 20260905181503 | 73 | 63 | 0.0 | 2.0 | 0.00 | 0.00 | 0.00 | 76 | 1014.2 |
| 20260905181003 | 73 | 63 | 1.0 | 2.0 | 0.00 | 0.00 | 0.00 | 72 | 1014.2 |
| 20260905180505 | 72 | 46 | 1.0 | 3.0 | 0.00 | 0.00 | 0.00 | 73 | 1014.2 |
| 20260905180003 | 72 | 41 | 1.0 | 3.0 | 0.00 | 0.00 | 0.00 | 68 | 1014.2 |
| 20260905175503 | 72 | 48 | 0.0 | 1.0 | 0.00 | 0.00 | 0.00 | 77 | 1014.1 |
| 20260905175003 | 72 | 48 | 0.0 | 1.0 | 0.00 | 0.00 | 0.00 | 75 | 1014.1 |
| 20260905174503 | 72 | 41 | 0.0 | 3.0 | 0.00 | 0.00 | 0.00 | 73 | 1014.1 |
| 20260905174003 | 72 | 41 | 0.0 | 3.0 | 0.00 | 0.00 | 0.00 | 70 | 1014.1 |
| 20260905173503 | 72 | 48 | 0.0 | 1.0 | 0.00 | 0.00 | 0.00 | 76 | 1014.1 |
| 20260905173003 | 72 | 48 | 0.0 | 2.0 | 0.00 | 0.00 | 0.00 | 73 | 1014.1 |
| 20260905172503 | 72 | 48 | 0.0 | 2.0 | 0.00 | 0.00 | 0.00 | 74 | 1014.2 |
| 20260905172003 | 71 | 58 | 0.0 | 3.0 | 0.00 | 0.00 | 0.00 | 78 | 1014.2 |
| 20260905171503 | 71 | 50 | 1.0 | 3.0 | 0.00 | 0.00 | 0.00 | 72 | 1014.2 |
| 20260905171217 | 72 | 41 | 0.0 | 2.0 | 0.00 | 0.00 | 0.00 | 72 | 1014.2 |
| 20260905170718 | 71 | 5 | 0.0 | 2.0 | 0.00 | 0.00 | 0.00 | 75 | 1014.2 |
| 20260905170003 | 71 | 31 | 0.0 | 1.0 | 0.00 | 0.00 | 0.00 | 75 | 1014.1 |
| 20260905165503 | 70 | 0 | 0.0 | 0.0 | 0.00 | 0.00 | 0.00 | 78 | 1014.1 |
| 20260905165223 | 70 | 0 | 0.0 | 0.0 | 0.00 | 0.00 | 0.00 | 79 | 1014.1 |
| 20260905164503 | 70 | 0 | 0.0 | 0.0 | 0.00 | 0.00 | 0.00 | 74 | 1014.2 |
| 20260905164217 | 70 | 0 | 0.0 | 0.0 | 0.00 | 0.00 | 0.00 | 77 | 1014.1 |
| 20260905163503 | 70 | 21 | 0.0 | 1.0 | 0.00 | 0.00 | 0.00 | 76 | 1014.2 |
| 20260905163003 | 70 | 21 | 0.0 | 1.0 | 0.00 | 0.00 | 0.00 | 77 | 1014.2 |
| 20260905162503 | 70 | 20 | 0.0 | 1.0 | 0.00 | 0.00 | 0.00 | 77 | 1014.3 |
| 20260905162003 | 70 | 4 | 0.0 | 1.0 | 0.00 | 0.00 | 0.00 | 77 | 1014.2 |
| 20260905161503 | 70 | 309 | 0.0 | 1.0 | 0.00 | 0.00 | 0.00 | 74 | 1014.2 |
| 20260905161218 | 70 | 323 | 0.0 | 2.0 | 0.00 | 0.00 | 0.00 | 76 | 1014.2 |
| 20260905160503 | 70 | 37 | 0.0 | 2.0 | 0.00 | 0.00 | 0.00 | 78 | 1014.3 |
| 20260905160003 | 70 | 44 | 1.0 | 3.0 | 0.00 | 0.00 | 0.00 | 77 | 1014.3 |
| 20260905155503 | 69 | 48 | 1.0 | 3.0 | 0.00 | 0.00 | 0.00 | 79 | 1014.4 |
| 20260905155218 | 69 | 57 | 1.0 | 3.0 | 0.00 | 0.00 | 0.00 | 80 | 1014.4 |
| 20260905154504 | 69 | 62 | 0.0 | 3.0 | 0.00 | 0.00 | 0.00 | 78 | 1014.4 |
| 20260905154003 | 69 | 43 | 1.0 | 2.0 | 0.00 | 0.00 | 0.00 | 79 | 1014.3 |
| 20260905153503 | 69 | 35 | 0.0 | 2.0 | 0.00 | 0.00 | 0.00 | 79 | 1014.4 |
| 20260905153003 | 69 | 45 | 0.0 | 2.0 | 0.00 | 0.00 | 0.00 | 82 | 1014.4 |
| 20260905152503 | 69 | 38 | 0.0 | 2.0 | 0.00 | 0.00 | 0.00 | 82 | 1014.5 |
| 20260905152003 | 68 | 16 | 0.0 | 2.0 | 0.00 | 0.00 | 0.00 | 81 | 1014.4 |
| 20260905151508 | 68 | 14 | 0.0 | 2.0 | 0.00 | 0.00 | 0.00 | 84 | 1014.7 |
| 20260905151003 | 68 | 45 | 1.0 | 2.0 | 0.00 | 0.00 | 0.00 | 83 | 1014.6 |
| 20260905150503 | 68 | 53 | 1.0 | 2.0 | 0.00 | 0.00 | 0.00 | 83 | 1014.7 |
| 20260905150218 | 68 | 53 | 1.0 | 2.0 | 0.00 | 0.00 | 0.00 | 84 | 1014.7 |
| 20260905145503 | 68 | 42 | 1.0 | 2.0 | 0.00 | 0.00 | 0.00 | 83 | 1014.6 |
| 20260905145003 | 68 | 42 | 0.0 | 2.0 | 0.00 | 0.00 | 0.00 | 83 | 1014.7 |
| 20260905144504 | 67 | 42 | 0.0 | 1.0 | 0.00 | 0.00 | 0.00 | 82 | 1014.6 |
| 20260905144218 | 67 | 42 | 0.0 | 3.0 | 0.00 | 0.00 | 0.00 | 84 | 1014.6 |
| 20260905143717 | 67 | 42 | 0.0 | 3.0 | 0.00 | 0.00 | 0.00 | 85 | 1014.5 |
| 20260905143005 | 66 | 36 | 0.0 | 2.0 | 0.00 | 0.00 | 0.00 | 86 | 1014.6 |
| 20260905142717 | 66 | 30 | 0.0 | 2.0 | 0.00 | 0.00 | 0.00 | 87 | 1014.6 |
| 20260905142003 | 66 | 30 | 0.0 | 1.0 | 0.00 | 0.00 | 0.00 | 89 | 1014.6 |
| 20260905141717 | 65 | 30 | 0.0 | 2.0 | 0.00 | 0.00 | 0.00 | 89 | 1014.5 |
| 20260905141003 | 65 | 30 | 0.0 | 2.0 | 0.00 | 0.00 | 0.00 | 92 | 1014.5 |
| 20260905140716 | 65 | 0 | 0.0 | 0.0 | 0.00 | 0.00 | 0.00 | 92 | 1014.6 |
| 20260905140004 | 64 | 0 | 0.0 | 0.0 | 0.00 | 0.00 | 0.00 | 93 | 1014.6 |
| 20260905135503 | 64 | 0 | 0.0 | 0.0 | 0.00 | 0.00 | 0.00 | 94 | 1014.7 |
| 20260905135003 | 64 | 42 | 0.0 | 3.0 | 0.00 | 0.00 | 0.00 | 95 | 1014.7 |
| 20260905134503 | 64 | 45 | 0.0 | 3.0 | 0.00 | 0.00 | 0.00 | 96 | 1014.9 |
| 20260905134003 | 64 | 80 | 0.0 | 1.0 | 0.00 | 0.00 | 0.00 | 97 | 1014.9 |
| 20260905133503 | 64 | 0 | 0.0 | 0.0 | 0.00 | 0.00 | 0.00 | 97 | 1014.7 |
| 20260905133003 | 64 | 80 | 0.0 | 1.0 | 0.00 | 0.00 | 0.00 | 98 | 1014.7 |
| 20260905132718 | 64 | 80 | 0.0 | 1.0 | 0.00 | 0.00 | 0.00 | 98 | 1014.7 |
| 20260905132003 | 63 | 80 | 0.0 | 1.0 | 0.00 | 0.00 | 0.00 | 98 | 1014.7 |
| 20260905131718 | 63 | 80 | 0.0 | 1.0 | 0.00 | 0.00 | 0.00 | 98 | 1014.7 |
| 20260905131003 | 62 | 0 | 0.0 | 0.0 | 0.00 | 0.00 | 0.00 | 98 | 1014.7 |
| 20260905130503 | 62 | 0 | 0.0 | 0.0 | 0.00 | 0.00 | 0.00 | 98 | 1014.7 |
| 20260905130217 | 62 | 0 | 0.0 | 0.0 | 0.00 | 0.00 | 0.00 | 98 | 1014.7 |
| 20260905125503 | 61 | 0 | 0.0 | 0.0 | 0.00 | 0.00 | 0.00 | 98 | 1014.6 |
| 20260905125004 | 60 | 0 | 0.0 | 0.0 | 0.00 | 0.00 | 0.00 | 97 | 1014.7 |
| 20260905124504 | 60 | 0 | 0.0 | 0.0 | 0.00 | 0.00 | 0.00 | 97 | 1014.7 |
| 20260905124003 | 60 | 0 | 0.0 | 0.0 | 0.00 | 0.00 | 0.00 | 97 | 1014.8 |
| 20260905123503 | 59 | 0 | 0.0 | 0.0 | 0.00 | 0.00 | 0.00 | 97 | 1014.9 |
| 20260905123003 | 58 | 0 | 0.0 | 0.0 | 0.00 | 0.00 | 0.00 | 96 | 1014.8 |
| 20260905122508 | 58 | 0 | 0.0 | 0.0 | 0.00 | 0.00 | 0.00 | 96 | 1014.9 |
| 20260905122003 | 58 | 0 | 0.0 | 0.0 | 0.00 | 0.00 | 0.00 | 96 | 1014.9 |
| 20260905121503 | 58 | 0 | 0.0 | 0.0 | 0.00 | 0.00 | 0.00 | 96 | 1015.0 |
| 20260905121005 | 58 | 0 | 0.0 | 0.0 | 0.00 | 0.00 | 0.00 | 96 | 1015.0 |
| 20260905120503 | 57 | 0 | 0.0 | 0.0 | 0.00 | 0.00 | 0.00 | 95 | 1015.0 |
| 20260905120003 | 57 | 0 | 0.0 | 0.0 | 0.00 | 0.00 | 0.00 | 95 | 1014.9 |
| 20260905115503 | 57 | 0 | 0.0 | 0.0 | 0.00 | 0.00 | 0.00 | 95 | 1014.9 |
| 20260905115003 | 57 | 0 | 0.0 | 0.0 | 0.00 | 0.00 | 0.00 | 95 | 1014.7 |
| 20260905114718 | 57 | 0 | 0.0 | 0.0 | 0.00 | 0.00 | 0.00 | 95 | 1014.7 |
| 20260905114003 | 57 | 0 | 0.0 | 0.0 | 0.00 | 0.00 | 0.00 | 95 | 1014.7 |
| 20260905113503 | 57 | 0 | 0.0 | 0.0 | 0.00 | 0.00 | 0.00 | 95 | 1014.6 |
| 20260905113003 | 57 | 0 | 0.0 | 0.0 | 0.00 | 0.00 | 0.00 | 95 | 1014.4 |
| 20260905112503 | 57 | 0 | 0.0 | 0.0 | 0.00 | 0.00 | 0.00 | 95 | 1014.4 |
| 20260905112216 | 57 | 0 | 0.0 | 0.0 | 0.00 | 0.00 | 0.00 | 95 | 1014.4 |
| 20260905111503 | 57 | 0 | 0.0 | 0.0 | 0.00 | 0.00 | 0.00 | 95 | 1014.3 |
| 20260905111003 | 57 | 0 | 0.0 | 0.0 | 0.00 | 0.00 | 0.00 | 95 | 1014.3 |
| 20260905110503 | 57 | 0 | 0.0 | 0.0 | 0.00 | 0.00 | 0.00 | 95 | 1014.2 |
| 20260905110003 | 57 | 0 | 0.0 | 0.0 | 0.00 | 0.00 | 0.00 | 95 | 1014.1 |
| 20260905105717 | 57 | 0 | 0.0 | 0.0 | 0.00 | 0.00 | 0.00 | 95 | 1014.1 |
| 20260905105003 | 57 | 0 | 0.0 | 0.0 | 0.00 | 0.00 | 0.00 | 94 | 1014.0 |
| 20260905104504 | 57 | 0 | 0.0 | 0.0 | 0.00 | 0.00 | 0.00 | 94 | 1014.0 |
| 20260905104003 | 57 | 0 | 0.0 | 0.0 | 0.00 | 0.00 | 0.00 | 94 | 1013.9 |
| 20260905103503 | 57 | 0 | 0.0 | 0.0 | 0.00 | 0.00 | 0.00 | 94 | 1014.0 |
| 20260905103003 | 58 | 0 | 0.0 | 0.0 | 0.00 | 0.00 | 0.00 | 94 | 1014.0 |
| 20260905102503 | 58 | 0 | 0.0 | 0.0 | 0.00 | 0.00 | 0.00 | 94 | 1014.1 |
| 20260905102003 | 58 | 0 | 0.0 | 0.0 | 0.00 | 0.00 | 0.00 | 94 | 1014.1 |
| 20260905101503 | 58 | 0 | 0.0 | 0.0 | 0.00 | 0.00 | 0.00 | 94 | 1014.1 |
| 20260905101003 | 58 | 0 | 0.0 | 0.0 | 0.00 | 0.00 | 0.00 | 94 | 1013.9 |
| 20260905100503 | 58 | 0 | 0.0 | 0.0 | 0.00 | 0.00 | 0.00 | 94 | 1014.0 |
| 20260905100003 | 58 | 0 | 0.0 | 0.0 | 0.00 | 0.00 | 0.00 | 94 | 1014.0 |
| 20260905095503 | 58 | 0 | 0.0 | 0.0 | 0.00 | 0.00 | 0.00 | 94 | 1014.0 |
| 20260905095218 | 58 | 0 | 0.0 | 0.0 | 0.00 | 0.00 | 0.00 | 94 | 1014.0 |
| 20260905094503 | 58 | 0 | 0.0 | 0.0 | 0.00 | 0.00 | 0.00 | 94 | 1013.9 |
| 20260905094003 | 58 | 0 | 0.0 | 0.0 | 0.00 | 0.00 | 0.00 | 94 | 1014.0 |
| 20260905093717 | 58 | 0 | 0.0 | 0.0 | 0.00 | 0.00 | 0.00 | 94 | 1013.9 |
| 20260905093003 | 58 | 0 | 0.0 | 0.0 | 0.00 | 0.00 | 0.00 | 94 | 1013.9 |
| 20260905092503 | 58 | 0 | 0.0 | 0.0 | 0.00 | 0.00 | 0.00 | 94 | 1013.7 |
| 20260905092003 | 58 | 0 | 0.0 | 0.0 | 0.00 | 0.00 | 0.00 | 94 | 1013.8 |
| 20260905091503 | 58 | 0 | 0.0 | 0.0 | 0.00 | 0.00 | 0.00 | 94 | 1013.7 |
| 20260905091003 | 58 | 0 | 0.0 | 0.0 | 0.00 | 0.00 | 0.00 | 94 | 1013.7 |
| 20260905090503 | 58 | 0 | 0.0 | 0.0 | 0.00 | 0.00 | 0.00 | 94 | 1013.6 |
| 20260905090003 | 58 | 0 | 0.0 | 0.0 | 0.00 | 0.00 | 0.00 | 94 | 1013.5 |
| 20260905085503 | 59 | 0 | 0.0 | 0.0 | 0.00 | 0.00 | 0.00 | 94 | 1013.5 |
| 20260905085003 | 59 | 0 | 0.0 | 0.0 | 0.00 | 0.00 | 0.00 | 94 | 1013.4 |
| 20260905084503 | 59 | 0 | 0.0 | 0.0 | 0.00 | 0.00 | 0.00 | 94 | 1013.2 |
| 20260905084003 | 59 | 0 | 0.0 | 0.0 | 0.00 | 0.00 | 0.00 | 94 | 1013.2 |
| 20260905083503 | 59 | 0 | 0.0 | 0.0 | 0.00 | 0.00 | 0.00 | 94 | 1013.2 |
| 20260905083003 | 59 | 0 | 0.0 | 0.0 | 0.00 | 0.00 | 0.00 | 94 | 1013.3 |
| 20260905082503 | 59 | 0 | 0.0 | 0.0 | 0.00 | 0.00 | 0.00 | 94 | 1013.3 |
| 20260905082217 | 59 | 0 | 0.0 | 0.0 | 0.00 | 0.00 | 0.00 | 94 | 1013.2 |
| 20260905081503 | 59 | 0 | 0.0 | 0.0 | 0.00 | 0.00 | 0.00 | 94 | 1013.3 |
| 20260905081217 | 59 | 0 | 0.0 | 0.0 | 0.00 | 0.00 | 0.00 | 94 | 1013.3 |
| 20260905080505 | 59 | 0 | 0.0 | 0.0 | 0.00 | 0.00 | 0.00 | 94 | 1013.4 |
| 20260905080003 | 60 | 0 | 0.0 | 0.0 | 0.00 | 0.00 | 0.00 | 94 | 1013.3 |
| 20260905075718 | 60 | 0 | 0.0 | 0.0 | 0.00 | 0.00 | 0.00 | 94 | 1013.3 |
| 20260905075003 | 60 | 0 | 0.0 | 0.0 | 0.00 | 0.00 | 0.00 | 94 | 1013.4 |
| 20260905074503 | 60 | 0 | 0.0 | 0.0 | 0.00 | 0.00 | 0.00 | 94 | 1013.4 |
| 20260905074003 | 60 | 0 | 0.0 | 0.0 | 0.00 | 0.00 | 0.00 | 94 | 1013.5 |
| 20260905073503 | 60 | 0 | 0.0 | 0.0 | 0.00 | 0.00 | 0.00 | 94 | 1013.5 |
| 20260905073003 | 60 | 0 | 0.0 | 0.0 | 0.00 | 0.00 | 0.00 | 94 | 1013.5 |
| 20260905072503 | 60 | 0 | 0.0 | 0.0 | 0.00 | 0.00 | 0.00 | 94 | 1013.6 |
| 20260905072003 | 60 | 0 | 0.0 | 0.0 | 0.00 | 0.00 | 0.00 | 94 | 1013.6 |
| 20260905071503 | 60 | 0 | 0.0 | 0.0 | 0.00 | 0.00 | 0.00 | 94 | 1013.7 |
| 20260905071003 | 60 | 0 | 0.0 | 0.0 | 0.00 | 0.00 | 0.00 | 94 | 1013.7 |
| 20260905070718 | 60 | 0 | 0.0 | 0.0 | 0.00 | 0.00 | 0.00 | 94 | 1013.7 |
| 20260905070217 | 60 | 0 | 0.0 | 0.0 | 0.00 | 0.00 | 0.00 | 94 | 1013.8 |
| 20260905065503 | 60 | 0 | 0.0 | 0.0 | 0.00 | 0.00 | 0.00 | 94 | 1013.9 |
| 20260905065003 | 61 | 0 | 0.0 | 0.0 | 0.00 | 0.00 | 0.00 | 94 | 1013.9 |
| 20260905064504 | 61 | 0 | 0.0 | 0.0 | 0.00 | 0.00 | 0.00 | 94 | 1013.8 |
| 20260905064003 | 61 | 0 | 0.0 | 0.0 | 0.00 | 0.00 | 0.00 | 94 | 1013.7 |
| 20260905063503 | 61 | 0 | 0.0 | 0.0 | 0.00 | 0.00 | 0.00 | 94 | 1013.8 |
| 20260905063003 | 61 | 0 | 0.0 | 0.0 | 0.00 | 0.00 | 0.00 | 93 | 1013.9 |
| 20260905062503 | 61 | 0 | 0.0 | 0.0 | 0.00 | 0.00 | 0.00 | 93 | 1013.9 |
| 20260905062003 | 61 | 0 | 0.0 | 0.0 | 0.00 | 0.00 | 0.00 | 93 | 1013.9 |
| 20260905061503 | 61 | 0 | 0.0 | 0.0 | 0.00 | 0.00 | 0.00 | 93 | 1013.9 |
| 20260905061008 | 61 | 0 | 0.0 | 0.0 | 0.00 | 0.00 | 0.00 | 93 | 1014.0 |
| 20260905060718 | 61 | 0 | 0.0 | 0.0 | 0.00 | 0.00 | 0.00 | 93 | 1014.0 |
| 20260905060003 | 61 | 0 | 0.0 | 0.0 | 0.00 | 0.00 | 0.00 | 93 | 1014.0 |
| 20260905055503 | 61 | 0 | 0.0 | 0.0 | 0.00 | 0.00 | 0.00 | 93 | 1014.0 |
| 20260905055003 | 62 | 0 | 0.0 | 0.0 | 0.00 | 0.00 | 0.00 | 93 | 1013.9 |
| 20260905054503 | 62 | 0 | 0.0 | 0.0 | 0.00 | 0.00 | 0.00 | 93 | 1014.0 |
| 20260905054216 | 62 | 0 | 0.0 | 0.0 | 0.00 | 0.00 | 0.00 | 93 | 1014.0 |
| 20260905053503 | 62 | 0 | 0.0 | 0.0 | 0.00 | 0.00 | 0.00 | 93 | 1014.0 |
| 20260905053218 | 62 | 0 | 0.0 | 0.0 | 0.00 | 0.00 | 0.00 | 93 | 1014.0 |
| 20260905052503 | 62 | 0 | 0.0 | 0.0 | 0.00 | 0.00 | 0.00 | 93 | 1014.0 |
| 20260905052003 | 62 | 0 | 0.0 | 0.0 | 0.00 | 0.00 | 0.00 | 93 | 1014.0 |
| 20260905051503 | 62 | 0 | 0.0 | 0.0 | 0.00 | 0.00 | 0.00 | 93 | 1014.1 |
| 20260905051003 | 62 | 0 | 0.0 | 0.0 | 0.00 | 0.00 | 0.00 | 93 | 1014.0 |
| 20260905050503 | 62 | 0 | 0.0 | 0.0 | 0.00 | 0.00 | 0.00 | 93 | 1014.0 |
| 20260905050003 | 63 | 0 | 0.0 | 0.0 | 0.00 | 0.00 | 0.00 | 93 | 1014.0 |
| 20260905045717 | 63 | 0 | 0.0 | 0.0 | 0.00 | 0.00 | 0.00 | 93 | 1014.1 |
| 20260905045003 | 63 | 0 | 0.0 | 0.0 | 0.00 | 0.00 | 0.00 | 93 | 1014.0 |
| 20260905044719 | 63 | 0 | 0.0 | 0.0 | 0.00 | 0.00 | 0.00 | 93 | 1014.1 |
| 20260905044003 | 63 | 0 | 0.0 | 0.0 | 0.00 | 0.00 | 0.00 | 93 | 1014.1 |
| 20260905043503 | 63 | 0 | 0.0 | 0.0 | 0.00 | 0.00 | 0.00 | 93 | 1014.0 |
| 20260905043003 | 63 | 0 | 0.0 | 0.0 | 0.00 | 0.00 | 0.00 | 93 | 1014.1 |
| 20260905042503 | 64 | 0 | 0.0 | 0.0 | 0.00 | 0.00 | 0.00 | 93 | 1014.2 |
| 20260905042003 | 64 | 0 | 0.0 | 0.0 | 0.00 | 0.00 | 0.00 | 93 | 1014.1 |
| 20260905041503 | 64 | 0 | 0.0 | 0.0 | 0.00 | 0.00 | 0.00 | 93 | 1014.2 |
| 20260905041003 | 64 | 0 | 0.0 | 0.0 | 0.00 | 0.00 | 0.00 | 93 | 1014.2 |
| 20260905040503 | 64 | 0 | 0.0 | 0.0 | 0.00 | 0.00 | 0.00 | 93 | 1014.0 |
| 20260905040004 | 64 | 0 | 0.0 | 0.0 | 0.00 | 0.00 | 0.00 | 93 | 1014.0 |
| 20260905035503 | 64 | 0 | 0.0 | 0.0 | 0.00 | 0.00 | 0.00 | 93 | 1014.1 |
| 20260905035218 | 64 | 0 | 0.0 | 0.0 | 0.00 | 0.00 | 0.00 | 92 | 1014.0 |
| 20260905034504 | 64 | 0 | 0.0 | 0.0 | 0.00 | 0.00 | 0.00 | 92 | 1014.1 |
| 20260905034218 | 64 | 0 | 0.0 | 0.0 | 0.00 | 0.00 | 0.00 | 92 | 1014.0 |
| 20260905033504 | 64 | 0 | 0.0 | 0.0 | 0.00 | 0.00 | 0.00 | 92 | 1014.1 |
| 20260905033218 | 64 | 0 | 0.0 | 0.0 | 0.00 | 0.00 | 0.00 | 92 | 1014.0 |
| 20260905032503 | 65 | 0 | 0.0 | 0.0 | 0.00 | 0.00 | 0.00 | 92 | 1014.0 |
| 20260905032003 | 65 | 0 | 0.0 | 0.0 | 0.00 | 0.00 | 0.00 | 92 | 1013.9 |
| 20260905031503 | 65 | 0 | 0.0 | 0.0 | 0.00 | 0.00 | 0.00 | 92 | 1013.8 |
| 20260905031003 | 65 | 0 | 0.0 | 0.0 | 0.00 | 0.00 | 0.00 | 92 | 1013.9 |
| 20260905030504 | 65 | 0 | 0.0 | 0.0 | 0.00 | 0.00 | 0.00 | 92 | 1013.9 |
| 20260905030003 | 65 | 0 | 0.0 | 0.0 | 0.00 | 0.00 | 0.00 | 92 | 1013.8 |
| 20260905025503 | 65 | 0 | 0.0 | 0.0 | 0.00 | 0.00 | 0.00 | 92 | 1013.9 |
| 20260905025217 | 65 | 0 | 0.0 | 0.0 | 0.00 | 0.00 | 0.00 | 92 | 1014.0 |
| 20260905024503 | 66 | 0 | 0.0 | 0.0 | 0.00 | 0.00 | 0.00 | 91 | 1014.0 |
| 20260905024003 | 66 | 0 | 0.0 | 0.0 | 0.00 | 0.00 | 0.00 | 91 | 1014.1 |
| 20260905023503 | 66 | 0 | 0.0 | 0.0 | 0.00 | 0.00 | 0.00 | 91 | 1014.1 |
| 20260905023217 | 66 | 0 | 0.0 | 0.0 | 0.00 | 0.00 | 0.00 | 91 | 1014.0 |
| 20260905022503 | 66 | 0 | 0.0 | 0.0 | 0.00 | 0.00 | 0.00 | 91 | 1014.0 |
| 20260905022003 | 66 | 0 | 0.0 | 0.0 | 0.00 | 0.00 | 0.00 | 91 | 1014.1 |
| 20260905021503 | 66 | 0 | 0.0 | 0.0 | 0.00 | 0.00 | 0.00 | 91 | 1014.0 |
| 20260905021217 | 66 | 0 | 0.0 | 0.0 | 0.00 | 0.00 | 0.00 | 91 | 1014.0 |
| 20260905020503 | 67 | 0 | 0.0 | 0.0 | 0.00 | 0.00 | 0.00 | 91 | 1013.9 |
| 20260905020003 | 67 | 0 | 0.0 | 0.0 | 0.00 | 0.00 | 0.00 | 90 | 1013.9 |
| 20260905015503 | 67 | 0 | 0.0 | 0.0 | 0.00 | 0.00 | 0.00 | 90 | 1013.9 |
| 20260905015217 | 67 | 0 | 0.0 | 0.0 | 0.00 | 0.00 | 0.00 | 90 | 1014.0 |
| 20260905014503 | 67 | 0 | 0.0 | 0.0 | 0.00 | 0.00 | 0.00 | 90 | 1013.9 |
| 20260905014003 | 67 | 0 | 0.0 | 0.0 | 0.00 | 0.00 | 0.00 | 90 | 1014.0 |
| 20260905013504 | 67 | 0 | 0.0 | 0.0 | 0.00 | 0.00 | 0.00 | 90 | 1014.1 |
| 20260905013003 | 67 | 0 | 0.0 | 0.0 | 0.00 | 0.00 | 0.00 | 90 | 1014.0 |
| 20260905012503 | 67 | 0 | 0.0 | 0.0 | 0.00 | 0.00 | 0.00 | 90 | 1014.0 |
| 20260905012003 | 68 | 0 | 0.0 | 0.0 | 0.00 | 0.00 | 0.00 | 90 | 1014.1 |
| 20260905011503 | 68 | 0 | 0.0 | 0.0 | 0.00 | 0.00 | 0.00 | 90 | 1014.2 |
| 20260905011003 | 68 | 0 | 0.0 | 0.0 | 0.00 | 0.00 | 0.00 | 90 | 1014.2 |
| 20260905010503 | 68 | 0 | 0.0 | 0.0 | 0.00 | 0.00 | 0.00 | 91 | 1014.2 |
| 20260905010003 | 68 | 0 | 0.0 | 0.0 | 0.00 | 0.00 | 0.00 | 90 | 1014.0 |
| 20260905005503 | 68 | 0 | 0.0 | 0.0 | 0.00 | 0.00 | 0.00 | 90 | 1014.2 |
| 20260905005217 | 68 | 0 | 0.0 | 0.0 | 0.00 | 0.00 | 0.00 | 90 | 1014.2 |
| 20260905004721 | 68 | 0 | 0.0 | 0.0 | 0.00 | 0.01 | 0.00 | 89 | 1014.1 |
| 20260905004003 | 68 | 0 | 0.0 | 0.0 | 0.00 | 0.01 | 0.00 | 89 | 1014.1 |
| 20260905003503 | 68 | 0 | 0.0 | 0.0 | 0.00 | 0.02 | 0.00 | 89 | 1014.1 |
| 20260905003003 | 68 | 0 | 0.0 | 0.0 | 0.00 | 0.02 | 0.00 | 89 | 1014.0 |
| 20260905002503 | 68 | 0 | 0.0 | 0.0 | 0.00 | 0.02 | 0.00 | 88 | 1013.7 |
| 20260905002003 | 68 | 0 | 0.0 | 0.0 | 0.00 | 0.02 | 0.00 | 88 | 1013.7 |
| 20260905001503 | 68 | 0 | 0.0 | 0.0 | 0.00 | 0.02 | 0.00 | 88 | 1013.7 |
| 20260905001003 | 69 | 0 | 0.0 | 0.0 | 0.00 | 0.02 | 0.00 | 88 | 1013.7 |
| 20260905000503 | 69 | 0 | 0.0 | 0.0 | 0.00 | 0.02 | 0.00 | 87 | 1013.7 |
| 20260905000219 | 69 | 0 | 0.0 | 0.0 | 0.00 | 0.02 | 0.00 | 87 | 1013.7 |
| 20260904235503 | 69 | 0 | 0.0 | 0.0 | 0.00 | 0.03 | 0.00 | 88 | 1013.6 |
| 20260904235003 | 69 | 0 | 0.0 | 0.0 | 0.00 | 0.04 | 0.00 | 87 | 1013.9 |
| 20260904234503 | 69 | 0 | 0.0 | 0.0 | 0.00 | 0.06 | 0.00 | 87 | 1013.8 |
| 20260904234003 | 70 | 0 | 0.0 | 0.0 | 0.00 | 0.13 | 0.00 | 87 | 1013.6 |
| 20260904233503 | 70 | 0 | 0.0 | 0.0 | 0.00 | 0.17 | 0.00 | 87 | 1013.7 |
| 20260904233003 | 70 | 0 | 0.0 | 0.0 | 0.00 | 0.17 | 0.00 | 85 | 1013.6 |
| 20260904232503 | 70 | 0 | 0.0 | 0.0 | 0.00 | 0.17 | 0.00 | 86 | 1013.7 |
| 20260904232003 | 70 | 0 | 0.0 | 0.0 | 0.00 | 0.17 | 0.00 | 86 | 1013.8 |
| 20260904231503 | 70 | 0 | 0.0 | 0.0 | 0.00 | 0.17 | 0.00 | 85 | 1013.8 |
| 20260904231003 | 71 | 0 | 0.0 | 0.0 | 0.00 | 0.17 | 0.00 | 84 | 1013.7 |
| 20260904230717 | 71 | 0 | 0.0 | 0.0 | 0.00 | 0.17 | 0.00 | 84 | 1013.6 |
| 20260904230003 | 71 | 0 | 0.0 | 0.0 | 0.00 | 0.17 | 0.00 | 83 | 1013.5 |
| 20260904225503 | 71 | 0 | 0.0 | 0.0 | 0.00 | 0.17 | 0.00 | 84 | 1013.4 |
| 20260904225218 | 71 | 0 | 0.0 | 0.0 | 0.00 | 0.17 | 0.00 | 84 | 1013.4 |